Regional Weather Roundup
Issued by NWS

Home | Current Version | Previous Version | Text Only | Print | Product List | Glossary Off
Versions: 1 2 3 4 5 6 7 8 9 10 11 12 13 14 15 16 17 18 19 20 21 22 23 24 25 26 27 28 29 30 31 32 33 34 35 36 37 38 39 40 41 42 43 44 45 46 47 48 49 50

000
ASUS44 KOUN 311310
RWROK

WEATHER ROUNDUP FOR OKLAHOMA
NATIONAL WEATHER SERVICE NORMAN OK
800 AM CDT THU JUL 31 2014

NOTE: "FAIR" INDICATES FEW OR NO CLOUDS BELOW 12,000 FEET WITH NO
      SIGNIFICANT WEATHER AND/OR OBSTRUCTIONS TO VISIBILITY.

OKZ001>007-009>012-014-015-017-311400-
NORTHWEST OKLAHOMA AND THE PANHANDLE

CITY           SKY/WX    TMP DP  RH WIND       PRES   REMARKS
GAGE           SUNNY     60  57  89 N3        30.18R
ENID/WOODRING  PTSUNNY   66  64  94 N10       30.11R FOG
$$

OKZ016-021>023-033>039-044-045-311400-
SOUTHWEST OKLAHOMA

CITY           SKY/WX    TMP DP  RH WIND       PRES   REMARKS
LAWTON/REGL    CLOUDY    69  65  86 N9        30.06R
LAWTON/FT SILL CLOUDY    68  66  94 N6        30.06R
FREDERICK      CLOUDY    68  67  96 N20       30.04S
CLINTON        CLOUDY    64  62  93 N12       30.15R
HOBART         CLOUDY    66  62  87 N16       30.11R
ALTUS AFB      CLOUDY    67  66  95 N12       30.10R
$$

OKZ018>020-024>031-311400-
CENTRAL OKLAHOMA

CITY           SKY/WX    TMP DP  RH WIND       PRES   REMARKS
OKLAHOMA CITY  LGT RAIN  68  66  93 NE7       30.08R FOG
OKC/WILEY POST CLOUDY    67  65  93 N10       30.09R
OKC/TINKER AFB CLOUDY    66  64  94 NE8       30.08R FOG
STILLWATER     CLOUDY    68  64  88 N8        30.09R
GUTHRIE        CLOUDY    67  65  93 N6        30.09R FOG
$$

OKZ008-013-054>072-311400-
NORTHEAST OKLAHOMA

CITY           SKY/WX    TMP DP  RH WIND       PRES   REMARKS
TULSA          DRIZZLE   68  66  93 E5        30.07R FOG
TULSA/JONES    LGT RAIN  68  67  96 E5        30.07S FOG
PONCA CITY     CLOUDY    65  63  93 N7        30.11R FOG
BARTLESVILLE   CLOUDY    67  65  93 NE9       30.10R
MUSKOGEE       CLOUDY    68  67  96 E7        30.08R
$$

OKZ032-040>043-046>053-073>077-311400-
SOUTH CENTRAL/SOUTHEAST OKLAHOMA

CITY           SKY/WX    TMP DP  RH WIND       PRES   REMARKS
ARDMORE/DWNTWN CLOUDY    64  63  94 NE8       30.01R
MCALESTER      LGT RAIN  66  65  96 VRB6      30.05R
$$




USA.gov is the U.S. government's official web portal to all federal, state and local government web resources and services.